Location: ???? ?????????
(44.3677°N, 135.2344°E)
Time: 06:33:13
(UTC+00:00)

Cosmos 2100 Rocket - Pass Details

Date: 19 May 2025
Orbit: 954 x 1000 km, 82.9° (Epoch: 23 June)

Event Time Altitude Azimuth Distance (km) Brightness Sun altitude
Rises 15:44:38 0° 348° (NNW) 3,714 8.1 -24.7°
Reaches altitude 10° 15:47:13 10° 345° (NNW) 2,755 7.2 -24.6°
Maximum altitude 15:53:24 61° 268° (W) 1,103 4.1 -24.4°
Enters shadow 15:54:40 51° 221° (SW) 1,215 4.1 -24.3°
